Location: *
(42.0175°N, 9.4056°E)
Time: 18:17:33
(UTC+00:00)

Cosmos 2219 Rocket - Pass Details

Date: 25 August 2019
Orbit: 829 x 845 km, 71.0° (Epoch: 17 October)

Event Time Altitude Azimuth Distance (km) Brightness Sun altitude
Rises 23:24:40 0° 336° (NNW) 3,381 6.1 -37.4°
Reaches altitude 10° 23:27:07 10° 337° (NNW) 2,442 5.2 -37.4°
Enters shadow 23:29:42 28° 340° (NNW) 1,501 3.9 -37.4°
